Location: Nairn
(57.5833°N, 3.8667°W)
Time: 00:00:03
(UTC+00:00)

S-56A Canister/Altair - Pass Details

Date: 09 October 2022
Orbit: 638 x 2494 km, 38.9° (Epoch: 09 December)

Event Time Altitude Azimuth Distance (km) Brightness Sun altitude
Exits shadow 04:24:24 15° 214° (SW) 3,147 10.2 -18.3°
Drops below altitude 10° 04:28:43 10° 181° (S) 3,193 10.5 -17.7°
Sets 04:32:28 0° 159° (SSE) 3,828 11.2 -17.3°
